CW8095 Weather Reports


Display with metric or nautical units.
time (UTC)temp
F
wind
direction
speed
MPH
gust
MPH
rain 1hr
in
rain 24hr
in
rain mn
in
humidity
%
barometer
mb
20260504045023 65 171 4.0 10.0 0.00 0.00 0.00 59 1016.2
20260504044018 65 168 4.0 10.0 0.00 0.00 0.00 59 1016.3
20260504043028 65 164 3.0 8.0 0.00 0.00 0.00 58 1016.3
20260504042022 66 167 2.0 4.0 0.00 0.00 0.00 57 1016.4
20260504041042 66 168 3.0 9.0 0.00 0.00 0.00 56 1016.4
20260504040027 66 160 3.0 8.0 0.00 0.00 0.00 55 1016.4
20260504035022 67 161 2.0 8.0 0.00 0.00 0.00 54 1016.5
20260504034017 67 153 3.0 9.0 0.00 0.00 0.00 52 1016.4
20260504033107 68 163 4.0 11.0 0.00 0.00 0.00 52 1016.3
20260504032022 68 161 4.0 9.0 0.00 0.00 0.00 51 1016.4
20260504031017 68 171 4.0 9.0 0.00 0.00 0.00 51 1016.3
20260504030027 69 165 3.0 7.0 0.00 0.00 0.00 50 1016.1
20260504025023 69 155 4.0 13.0 0.00 0.00 0.00 48 1016.2
20260504024018 70 174 3.0 9.0 0.00 0.00 0.00 48 1016.1
20260504023028 70 155 3.0 9.0 0.00 0.00 0.00 47 1016.1
20260504022023 71 160 3.0 7.0 0.00 0.00 0.00 47 1016.0
20260504021019 71 162 3.0 7.0 0.00 0.00 0.00 45 1016.1
20260504020048 72 164 4.0 10.0 0.00 0.00 0.00 45 1016.0
20260504015024 72 160 3.0 8.0 0.00 0.00 0.00 44 1016.0
20260504014018 73 155 2.0 6.0 0.00 0.00 0.00 42 1015.9
20260504013028 73 153 2.0 4.0 0.00 0.00 0.00 41 1015.8
20260504012023 74 155 2.0 8.0 0.00 0.00 0.00 38 1015.7
20260504011018 75 168 4.0 13.0 0.00 0.00 0.00 36 1015.7
20260504010028 76 160 4.0 10.0 0.00 0.00 0.00 34 1015.9
20260504005023 77 158 4.0 11.0 0.00 0.00 0.00 34 1015.8
20260504004038 78 160 4.0 11.0 0.00 0.00 0.00 33 1015.7
20260504003028 79 165 4.0 11.0 0.00 0.00 0.00 31 1015.8
20260504002023 80 176 4.0 9.0 0.00 0.00 0.00 30 1015.8
20260504001018 82 153 5.0 14.0 0.00 0.00 0.00 29 1015.9
20260504000028 83 161 5.0 13.0 0.00 0.00 0.00 28 1016.0
20260503235042 83 166 4.0 11.0 0.00 0.00 0.00 27 1015.9
20260503234037 84 163 4.0 10.0 0.00 0.00 0.00 27 1016.0
20260503233047 84 153 5.0 10.0 0.00 0.00 0.00 26 1016.1
20260503232022 84 160 4.0 14.0 0.00 0.00 0.00 26 1016.3
20260503231036 84 155 5.0 11.0 0.00 0.00 0.00 27 1016.3
20260503230027 85 160 5.0 14.0 0.00 0.00 0.00 26 1016.3
20260503225022 85 149 6.0 25.0 0.00 0.00 0.00 27 1016.3
20260503224017 85 161 5.0 13.0 0.00 0.00 0.00 27 1016.3
20260503223027 85 159 5.0 13.0 0.00 0.00 0.00 27 1016.4
20260503222022 86 160 4.0 9.0 0.00 0.00 0.00 26 1016.5
20260503221017 87 161 5.0 11.0 0.00 0.00 0.00 26 1016.7
20260503220048 86 169 4.0 11.0 0.00 0.00 0.00 25 1016.9
20260503215022 86 170 5.0 15.0 0.00 0.00 0.00 25 1016.9
20260503214017 87 179 5.0 11.0 0.00 0.00 0.00 25 1017.1
20260503213028 87 158 5.0 13.0 0.00 0.00 0.00 24 1017.2
20260503212023 87 156 4.0 11.0 0.00 0.00 0.00 25 1017.5
20260503211018 86 173 6.0 15.0 0.00 0.00 0.00 25 1017.5
20260503210049 87 155 5.0 11.0 0.00 0.00 0.00 25 1017.8
20260503205024 88 157 3.0 9.0 0.00 0.00 0.00 25 1017.9
20260503204019 88 162 5.0 13.0 0.00 0.00 0.00 25 1018.2
20260503203029 88 168 3.0 10.0 0.00 0.00 0.00 26 1018.2
20260503202024 87 141 2.0 6.0 0.00 0.00 0.00 27 1018.5
20260503201019 87 180 2.0 8.0 0.00 0.00 0.00 24 1018.6
20260503200029 87 172 4.0 10.0 0.00 0.00 0.00 25 1018.7
20260503195024 87 161 4.0 10.0 0.00 0.00 0.00 25 1019.0
20260503194019 87 171 4.0 9.0 0.00 0.00 0.00 26 1019.1
20260503193029 86 155 4.0 10.0 0.00 0.00 0.00 26 1019.2
20260503192025 86 167 4.0 11.0 0.00 0.00 0.00 28 1019.3
20260503191019 87 136 3.0 10.0 0.00 0.00 0.00 28 1019.7
20260503190029 86 93 2.0 10.0 0.00 0.00 0.00 27 1019.7
20260503185045 86 156 4.0 10.0 0.00 0.00 0.00 29 1019.8
20260503184020 85 169 4.0 10.0 0.00 0.00 0.00 29 1020.0
20260503183016 84 281 3.0 7.0 0.00 0.00 0.00 28 1020.0
20260503182026 84 167 3.0 6.0 0.00 0.00 0.00 30 1020.3
20260503181021 83 149 6.0 15.0 0.00 0.00 0.00 28 1020.5
20260503180037 83 290 2.0 4.0 0.00 0.00 0.00 31 1020.7
20260503175027 83 192 3.0 11.0 0.00 0.00 0.00 32 1020.9
20260503174022 83 148 3.0 8.0 0.00 0.00 0.00 34 1021.0
20260503173017 83 139 2.0 4.0 0.00 0.00 0.00 35 1021.1
20260503172047 82 168 3.0 13.0 0.00 0.00 0.00 35 1021.3
20260503171041 82 198 3.0 9.0 0.00 0.00 0.00 38 1021.6
20260503131027 64 167 2.0 7.0 0.00 0.00 0.00 65 1021.6
20260503081041 57 155 1.0 2.0 0.00 0.00 0.00 72 1020.3
20260503072108 58 158 1.0 3.0 0.00 0.00 0.00 70 1020.7
20260503071023 58 163 1.0 2.0 0.00 0.00 0.00 69 1020.6